Total_Precipitation_Accumulation
1.74 1.64 1.56 1.51 1.42 1.60 1.93 2.14 2.06 2.05 1.99 1.89 1.70 1.52 1.37 1.34 1.32 1.42 1.52 1.70 1.70 1.65 1.73 1.86 1.75 1.58 1.48 1.32 1.12 0.99 0.92 0.88 0.80 0.64 0.55 0.46 0.39 0.39 0.41 0.46 0.45 0.42 0.41
2.14 2.20 2.10 1.92 1.63 1.61 1.73 2.06 2.18 2.30 2.19 2.05 1.52 1.44 1.45 1.47 1.51 1.50 1.55 2.01 2.05 1.69 1.57 1.64 1.76 1.78 1.67 1.56 1.35 1.14 1.03 0.94 0.81 0.64 0.56 0.50 0.41 0.36 0.41 0.48 0.48 0.40 0.30
2.29 2.29 2.05 1.73 1.54 1.63 1.73 1.69 1.73 2.03 1.82 1.68 1.49 1.59 1.64 1.54 1.50 1.49 1.52 1.81 1.89 1.59 1.36 1.30 1.45 1.59 1.70 1.82 1.74 1.60 1.38 1.15 0.93 0.73 0.61 0.49 0.41 0.35 0.35 0.43 0.50 0.44 0.32
1.96 1.98 1.63 1.28 1.36 1.57 1.66 1.62 1.57 1.67 1.66 1.69 1.67 1.64 1.62 1.52 1.29 1.22 1.13 1.12 1.23 1.08 1.15 1.31 1.29 1.27 1.51 1.83 2.02 2.16 1.93 1.48 1.12 0.86 0.71 0.57 0.45 0.34 0.30 0.34 0.40 0.39 0.31
1.43 1.51 1.23 1.11 1.26 1.40 1.44 1.41 1.55 1.64 1.52 1.58 1.60 1.49 1.24 1.11 0.97 0.86 0.82 0.75 0.79 0.83 0.81 1.02 1.11 1.17 1.46 1.88 2.22 2.51 2.50 2.11 1.65 1.30 1.02 0.76 0.60 0.43 0.34 0.29 0.30 0.32 0.28
1.12 1.29 1.18 1.08 1.21 1.29 1.26 1.40 1.51 1.58 1.36 1.34 1.28 1.04 0.87 0.66 0.61 0.56 0.48 0.52 0.55 0.55 0.64 0.77 1.02 0.94 1.29 1.64 2.00 2.38 2.70 2.57 2.02 1.64 1.45 1.22 0.98 0.70 0.45 0.32 0.28 0.29 0.25
1.06 1.20 1.10 1.02 1.02 1.04 1.01 1.15 1.27 1.28 1.06 1.26 1.41 0.94 0.65 0.51 0.44 0.34 0.32 0.36 0.39 0.47 0.62 0.82 1.01 1.02 1.16 1.29 1.47 1.80 2.35 2.59 2.30 1.90 1.69 1.49 1.34 1.02 0.65 0.43 0.31 0.24 0.22
0.88 0.96 0.94 0.85 0.81 0.84 0.83 0.90 1.04 1.04 0.92 1.19 1.33 1.20 0.85 0.63 0.50 0.35 0.35 0.36 0.40 0.51 0.58 0.68 0.95 1.10 1.14 1.51 1.31 1.30 1.71 2.18 2.38 2.22 2.00 1.66 1.43 1.17 0.86 0.66 0.47 0.32 0.24
0.60 0.60 0.61 0.65 0.70 0.70 0.72 0.78 0.94 1.05 0.93 0.96 1.19 1.31 1.05 0.74 0.65 0.50 0.49 0.53 0.57 0.64 0.71 0.85 0.97 1.08 1.17 1.44 1.48 1.43 1.41 1.55 2.04 2.47 2.46 1.98 1.47 1.18 1.07 1.01 0.88 0.62 0.45
0.43 0.42 0.44 0.55 0.61 0.67 0.71 0.66 0.71 0.87 0.93 0.85 0.95 1.06 1.08 1.08 1.02 0.74 0.56 0.53 0.60 0.63 0.66 0.71 0.81 0.96 1.04 1.26 1.59 1.57 1.43 1.31 1.48 2.08 2.47 2.39 1.94 1.38 1.12 1.17 1.42 1.27 0.88
0.42 0.39 0.38 0.40 0.50 0.58 0.64 0.66 0.69 0.74 0.81 0.79 0.81 0.86 0.93 1.03 1.03 0.94 0.69 0.54 0.55 0.54 0.61 0.67 0.74 0.81 0.89 1.14 1.52 1.53 1.52 1.33 1.26 1.43 1.81 2.04 1.99 1.69 1.42 1.45 1.91 2.21 1.92
0.39 0.39 0.38 0.41 0.43 0.44 0.47 0.55 0.61 0.66 0.72 0.74 0.74 0.81 0.89 0.88 0.88 0.99 0.86 0.70 0.64 0.58 0.67 0.74 0.85 0.94 0.96 1.04 1.02 1.10 1.11 1.14 1.11 1.06 1.13 1.30 1.53 1.66 1.69 1.86 2.27 2.68 2.80
0.32 0.36 0.38 0.43 0.48 0.49 0.49 0.51 0.57 0.64 0.70 0.76 0.75 0.78 0.86 0.90 0.90 0.99 0.96 0.79 0.73 0.77 0.88 0.90 0.89 0.97 0.93 1.09 1.03 0.87 0.73 0.74 0.73 0.73 0.75 0.84 1.03 1.24 1.40 1.52 1.82 2.19 2.50
0.28 0.34 0.39 0.43 0.46 0.52 0.54 0.62 0.65 0.70 0.75 0.78 0.76 0.87 0.92 0.89 0.98 1.04 1.10 1.12 1.00 0.99 1.12 1.01 0.83 0.82 0.85 0.88 0.84 0.76 0.76 0.61 0.51 0.47 0.48 0.53 0.61 0.73 0.86 1.01 1.19 1.39 1.60
0.23 0.25 0.32 0.43 0.45 0.48 0.55 0.65 0.69 0.74 0.80 0.85 0.88 0.98 1.05 1.03 1.03 1.03 1.16 1.26 1.30 1.25 1.28 1.17 0.99 0.88 0.80 0.73 0.72 0.71 0.76 0.72 0.52 0.38 0.35 0.36 0.44 0.51 0.56 0.59 0.69 0.80 0.92
0.20 0.21 0.25 0.33 0.36 0.40 0.49 0.62 0.70 0.77 0.89 0.97 0.96 0.99 1.08 1.11 1.16 1.16 1.17 1.25 1.38 1.46 1.40 1.13 1.05 0.97 0.84 0.65 0.62 0.59 0.61 0.66 0.51 0.36 0.29 0.28 0.30 0.35 0.41 0.46 0.51 0.55 0.62
0.18 0.17 0.18 0.20 0.21 0.24 0.33 0.50 0.70 0.82 0.93 0.98 1.01 1.06 1.09 1.17 1.20 1.12 1.17 1.23 1.33 1.46 1.33 1.07 1.11 1.23 1.09 0.84 0.66 0.59 0.52 0.52 0.50 0.43 0.29 0.25 0.25 0.26 0.31 0.35 0.37 0.42 0.47
0.19 0.17 0.16 0.15 0.13 0.16 0.25 0.42 0.59 0.75 0.90 1.02 1.05 1.06 0.97 0.98 1.09 1.13 1.16 1.20 1.24 1.37 1.31 1.20 1.16 1.26 1.24 1.07 0.88 0.68 0.51 0.43 0.44 0.48 0.36 0.27 0.24 0.25 0.28 0.30 0.29 0.31 0.35
0.26 0.23 0.20 0.19 0.23 0.28 0.36 0.46 0.52 0.65 0.80 0.90 0.93 0.91 0.88 0.92 0.93 1.03 1.09 1.11 1.13 1.13 1.20 1.22 1.21 1.33 1.34 1.19 0.96 0.76 0.58 0.53 0.48 0.45 0.39 0.35 0.31 0.30 0.32 0.29 0.26 0.28 0.32
0.27 0.26 0.25 0.29 0.35 0.41 0.44 0.44 0.47 0.55 0.61 0.67 0.73 0.71 0.70 0.76 0.82 0.88 0.91 0.94 0.99 1.05 1.10 1.12 1.20 1.33 1.36 1.34 1.13 0.89 0.69 0.57 0.53 0.46 0.43 0.47 0.48 0.45 0.41 0.36 0.29 0.27 0.30
0.22 0.27 0.31 0.34 0.39 0.42 0.40 0.43 0.47 0.43 0.48 0.48 0.46 0.50 0.52 0.55 0.62 0.72 0.73 0.78 0.87 0.93 0.98 1.07 1.16 1.31 1.34 1.38 1.23 1.00 0.84 0.71 0.61 0.55 0.53 0.52 0.52 0.46 0.41 0.40 0.36 0.29 0.25
0.27 0.31 0.34 0.37 0.38 0.35 0.33 0.33 0.33 0.31 0.34 0.38 0.39 0.37 0.36 0.41 0.46 0.52 0.57 0.63 0.72 0.80 0.89 1.00 1.10 1.22 1.31 1.28 1.24 1.15 1.03 0.85 0.66 0.63 0.73 0.73 0.61 0.57 0.68 0.63 0.48 0.30 0.23
0.36 0.39 0.41 0.42 0.44 0.46 0.33 0.25 0.20 0.23 0.28 0.34 0.39 0.42 0.30 0.24 0.33 0.43 0.50 0.51 0.54 0.60 0.73 0.88 0.97 1.09 1.26 1.32 1.36 1.27 1.19 1.05 0.82 0.65 0.63 0.58 0.56 0.59 0.84 0.96 0.69 0.39 0.29
0.57 0.58 0.57 0.55 0.57 0.53 0.38 0.26 0.19 0.18 0.24 0.30 0.36 0.40 0.39 0.33 0.34 0.39 0.50 0.53 0.51 0.48 0.55 0.66 0.75 0.96 1.28 1.51 1.53 1.50 1.46 1.37 1.14 0.86 0.73 0.63 0.56 0.56 0.55 0.60 0.65 0.46 0.34
0.78 0.81 0.84 0.81 0.75 0.68 0.50 0.32 0.26 0.27 0.34 0.38 0.40 0.40 0.41 0.37 0.30 0.27 0.38 0.47 0.51 0.51 0.49 0.59 0.69 0.85 1.08 1.41 1.58 1.60 1.63 1.45 1.23 0.94 0.74 0.67 0.55 0.54 0.51 0.46 0.52 0.57 0.46
0.98 0.96 0.88 0.80 0.76 0.76 0.63 0.40 0.34 0.38 0.46 0.49 0.55 0.53 0.44 0.40 0.33 0.26 0.35 0.45 0.48 0.50 0.55 0.57 0.61 0.65 0.78 1.05 1.31 1.33 1.35 1.38 1.16 0.96 0.70 0.62 0.56 0.50 0.49 0.43 0.40 0.45 0.50